Location: George Washington National Forest Helicopter Landing Site
(38.6463°N, 79.0851°W)
Time: 02:12:45
(UTC-04:00)

Tiros 1 despin weight - Pass Details

Date: 24 August 2019
Orbit: 594 x 642 km, 48.2° (Epoch: 19 September)

Event Time Altitude Azimuth Distance (km) Brightness Sun altitude
Rises 03:22:08 0° 296° (WNW) 2,854 - -32.5°
Reaches altitude 10° 03:24:46 10° 310° (NW) 1,958 - -32.2°
Exits shadow 03:28:20 25° 3° (N) 1,255 ? -31.8°
Maximum altitude 03:28:29 25° 6° (N) 1,254 ? -31.7°
Drops below altitude 10° 03:32:15 10° 62° (ENE) 1,982 ? -31.3°
Sets 03:34:56 0° 76° (ENE) 2,898 ? -30.9°
